Location: Sungai Sekpah
(3.0479°N, 114.0461°E)
Time: 02:20:30
(UTC+00:00)

Daily predictions for brighter satellites

Satellite Brightness Start Highest point End
(mag) Time Altitude Azimuth Time Altitude Azimuth Time Altitude Azimuth
BLOCK DM-SL R/B 4.5 10:04:07 10° WSW 10:08:58 61° SSE 10:58:34 10° E
Geosat 4.2 10:18:11 10° NNE 10:23:12 82° WNW 10:28:13 10° SSW
USA 281 3.5 10:17:31 10° SE 10:23:43 46° ENE 10:29:54 10° N
Okean O Rocket 1.8 10:20:30 10° S 10:24:55 82° W 10:29:17 10° NNW
Meteor 2-14 Rocket 4.5 10:21:31 10° N 10:27:36 88° E 10:33:41 10° S
Cosmos 1939 Rocket 3.9 10:24:37 10° SE 10:27:57 24° ENE 10:31:13 10° NNE
Meteor 2-15 4.5 10:22:11 10° S 10:28:18 71° E 10:34:25 10° N
CZ-2C R/B 4.4 10:27:24 10° E 10:29:11 12° ESE 10:30:58 10° ESE
Cosmos 1812 Rocket 4.2 10:25:34 10° SSE 10:29:37 35° E 10:33:38 10° NNE
Cosmos 1697 Rocket 3.9 10:25:48 10° SSW 10:31:09 47° WNW 10:36:29 10° N
COSMO-SKYMED 1 3.9 10:28:03 10° N 10:32:10 43° WNW 10:36:17 10° SSW
Meteor 2-1 Rocket 4.2 10:26:56 10° S 10:32:29 68° E 10:37:57 10° NNE
USA 276 2.4 10:30:50 10° NNW 10:33:53 44° NE 10:36:57 10° SE
ARIANE 5 DEB (SYLDA) 3.6 10:30:00 10° W 10:35:49 56° S 10:38:12 10° E
CZ-2C R/B 2.2 10:33:39 10° SSW 10:37:39 35° SE 10:41:13 11° ENE
Helios 1A Rocket 4.2 10:35:49 10° SE 10:38:49 20° ENE 10:41:48 10° NNE
Cosmos 1825 Rocket 4.4 10:37:00 10° NNW 10:41:16 54° W 10:45:31 10° S
NOAA 11 4.1 10:35:51 10° SSE 10:41:18 71° ENE 10:46:43 10° N
BLOCK-DM UPPERSTAGE 3.7 10:38:28 10° W 10:43:00 53° S 10:47:02 10° ESE
Ariane H10+ 3.6 10:36:58 10° W 10:50:36 60° N 10:53:19 17° ENE
CZ-4 R/B 2.3 10:50:13 10° SE 10:53:30 25° ENE 10:56:44 10° NNE
MOS 1 Rocket 3.5 10:48:58 10° NNE 10:54:03 76° E 10:59:24 10° S
Cosmos 1980 Rocket 2.7 10:48:32 10° SSW 10:54:08 63° WNW 10:59:41 10° N
Okean-O 3.2 10:55:44 10° SE 10:59:46 35° ENE 11:03:47 10° NNE
SL-08 R/B 4.4 10:54:16 10° N 11:00:14 58° E 11:06:13 10° SSE
Ariane H10 2.0 10:58:44 10° W 11:01:07 81° N 11:01:52 35° E
Cosmos 1408 3.8 11:05:09 23° ESE 11:05:09 23° ESE 11:07:31 10° SE
CZ-2D R/B 3.2 11:00:43 10° SSE 11:04:29 58° E 11:08:13 10° N
Cosmos 1745 Rocket 4.3 10:58:56 10° NNE 11:04:51 42° E 11:10:48 10° SSE
Cosmos 1892 2.8 11:03:54 10° N 11:07:40 53° E 11:11:26 10° SSE
Ariane H10+ 3.2 11:07:14 10° WSW 11:09:48 59° SSE 11:13:15 23° E
CZ-2C R/B 3.6 11:06:06 10° SSE 11:11:32 42° ENE 11:16:58 10° N
GPS 2-17 Rocket1 4.5 11:12:12 10° SW 11:15:54 24° SSE 11:17:22 21° SE
Cosmos 2297 Rocket 2.6 11:13:47 10° N 11:18:56 37° ENE 11:24:04 10° SE
Gbstr 26 Del rocket 4.4 11:11:19 10° NNW 11:18:59 82° NE 11:27:09 10° SE
Hubble Space Telescope 1.5 11:15:59 10° NW 11:19:45 34° NNE 11:19:54 34° NE
Cosmos 2058 2.9 11:15:56 10° N 11:19:55 52° E 11:23:56 10° SSE
In-Cosmos 22 Rocket 4.2 11:15:36 10° N 11:21:06 82° W 11:26:47 10° S
Cosmos 2322 Rocket 2.6 11:21:07 10° S 11:26:23 40° ESE 11:27:13 37° E
SWIFT 3.4 11:25:06 10° NW 11:28:31 29° N 11:28:31 29° N
Cosmos 2315 Rocket 4.1 11:24:22 10° S 11:30:38 79° W 11:36:49 10° N
Cosmos 192 4.2 11:27:21 10° S 11:32:15 76° ESE 11:34:11 37° NNE
Cosmos 1346 Rocket 2.6 11:31:15 44° NNE 11:32:25 74° E 11:36:23 10° S
Cosmos 1709 Rocket 4.4 11:34:58 39° E 11:34:58 39° E 11:40:25 10° SSE
H-2A R/B 2.2 11:34:55 10° SSE 11:45:10 11° N 11:45:17 10° N
ARIANE 3 DEB 3.6 11:34:21 10° WSW 11:42:14 55° S 11:42:56 49° SE
Cosmos 2219 3.1 11:44:40 10° NNW 11:50:24 89° W 11:56:07 10° SSE
